リニア彗星

C/2003 H2 ( LINEAR )

English version
Home page
Updated on August 25, 2003

---------------------------------------------------------------------

・ プロフィール

発見日 2003年4月24日
発見光度 18.8等
発見者 Lincoln Laboratory Near-Earth Asteroid Research project

・ 写真集

・ 軌道要素

Epoch 2003 May 1.0 TT = JDT 2452760.5
T 2003 May 17.97116 TT                                  MPC
q   2.1785469            (2000.0)            P               Q
z  +0.0261722      Peri.  155.08304     -0.27279638     +0.16844369
 +/-0.0000000      Node    79.83763     -0.96174902     -0.07324767
e   0.9429826      Incl.   74.21896     +0.02491902     -0.98298601

・ 星図

・ 光度変化

        m1 = 13.5 + 5 logΔ + 10.0 log r

---------------------------------------------------------------------

軌道要素はM.P.E.C. 2003-P17に掲載されたものです。
星図は StellaNavigator Ver.2.0 for Windows (アストロアーツ 編著 / アスキー出版局刊) で作成したものです。
光度グラフはComet for Windowsで作成したものです。

---------------------------------------------------------------------

Copyright(C) Seiichi Yoshida (comet@aerith.net). All rights reserved.